Tracking 18980 objects as of 19-Feb-2018
HD Live streaming from Space Station
objects crossing your sky now

ECHOSTAR 14

Track ECHOSTAR 14 now!
ECHOSTAR 14 is classified as:


NORAD ID: 36499
Int'l Code: 2010-010A
Perigee: 35,781.3 km
Apogee: 35,806.8 km
Inclination: 0.0 °
Period: 1,436.1 minutes
Semi major axis: 42165 km
RCS: 54.9821 m2 (large)
Launch date: March 20, 2010
Source: United States (US)
Launch site: TYURATAM MISSILE AND SPACE COMPLEX (TTMTR)

Designed to last up to 15 years, EchoStar 14 carries 103 Ku-band transponders that will reach customers across North America.
aabbcc
Your satellite tracking list
Your tracking list is empty




NASA's NSSDC Master Catalog

Two Line Element Set (TLE):
1 36499U 10010A   18050.44282201 -.00000005  00000-0  00000+0 0  9995
2 36499   0.0189 146.7502 0003025 176.3009 226.8016  1.00270801 29052
Source of the keplerian elements: AFSPC